Weather History for KIJD - June, 2014

Change the Weather History Date:

Saturday, June 7, 2014

  Actual Average Record
Temperature  
Mean Temperature 67 °F -  
Max Temperature 82 °F 75 °F 96 °F (1999)
Min Temperature 52 °F 51 °F 30 °F (1958)
Cooling Degree Days 2    
Growing Degree Days 17 (Base 50)    
Moisture  
Dew Point 54 °F    
Average Humidity 65    
Maximum Humidity 93    
Minimum Humidity 35    
Precipitation  
Precipitation 0.00 in - - ()
Sea Level Pressure  
Sea Level Pressure 29.93 in    
Wind  
Wind Speed 3 mph (North)    
Max Wind Speed 9 mph    
Max Gust Speed 18 mph    
Visibility 10 miles    
Events      
Averages and records for this station are not official NWS values.
T = Trace of Precipitation, MM = Missing Value Source: NWS Daily Summary

Daily Weather History Graph

Daily Weather History Graph

Search for Another Location

Airport or City:

Trip Planner

Search our weather history database for the weather conditions in past years. The results will help you decide how hot, cold, wet, or windy it might be!

Date:

Astronomy

Jun. 07, 2014 Rise Set
Actual Time 5:14 AM EDT 8:21 PM EDT
Civil Twilight 4:40 AM EDT 8:55 PM EDT
Nautical Twilight 3:57 AM EDT 9:38 PM EDT
Astronomical Twilight 3:05 AM EDT 10:30 PM EDT
Moon 2:31 PM EDT (6/7) 1:39 AM EDT (6/7)
Length of Visible Light 16h 14m
Length of Day
15h 06m
Waxing Gibbous, 67% of the Moon is Illuminated
Jun 7
Waxing Gibbous
Jun 13
Full
Jun 19
Last Quarter
Jun 27
New
Jul 5
First Quarter

Hourly Weather History & Observations

Time (EDT) Temp. Heat Index Dew Point Humidity Pressure Visibility Wind Dir Wind Speed Gust Speed Precip Events Conditions
12:52 AM 55.9 °F - 53.1 °F 90% 29.92 in 10.0 mi ENE 3.5 mph - N/A   Clear
1:52 AM 54.0 °F - 51.1 °F 90% 29.92 in 10.0 mi Calm Calm - N/A   Clear
2:52 AM 53.1 °F - 50.0 °F 89% 29.93 in 10.0 mi Calm Calm - N/A   Clear
3:52 AM 53.1 °F - 50.0 °F 89% 29.92 in 10.0 mi Calm Calm - N/A   Clear
5:52 AM 52.0 °F - 50.0 °F 93% 29.94 in 10.0 mi Calm Calm - N/A   Clear
6:52 AM 57.0 °F - 53.1 °F 87% 29.96 in 10.0 mi Calm Calm - N/A   Clear
7:52 AM 63.0 °F - 54.0 °F 72% 29.95 in 10.0 mi Variable 3.5 mph - N/A   Clear
8:52 AM 69.1 °F - 54.0 °F 58% 29.96 in 10.0 mi North 9.2 mph - N/A   Clear
9:52 AM 73.9 °F - 54.0 °F 50% 29.96 in 10.0 mi Calm Calm - N/A   Clear
11:52 AM 78.1 °F - 54.0 °F 43% 29.96 in 10.0 mi NNE 8.1 mph - N/A   Clear
12:52 PM 80.1 °F - 52.0 °F 38% 29.94 in 10.0 mi NNE 6.9 mph - N/A   Clear
1:52 PM 80.1 °F - 52.0 °F 38% 29.94 in 10.0 mi West 8.1 mph - N/A   Mostly Cloudy
2:52 PM 81.0 °F - 51.1 °F 35% 29.93 in 10.0 mi NNW 9.2 mph 18.4 mph N/A   Partly Cloudy
3:52 PM 82.0 °F 81.2 °F 53.1 °F 37% 29.91 in 10.0 mi West 6.9 mph - N/A   Scattered Clouds
4:52 PM 82.0 °F - 52.0 °F 35% 29.90 in 10.0 mi Calm Calm - N/A   Scattered Clouds
5:52 PM 79.0 °F - 55.0 °F 44% 29.90 in 10.0 mi Calm Calm - N/A   Clear
6:52 PM 78.1 °F - 55.9 °F 46% 29.90 in 10.0 mi Calm Calm - N/A   Clear
7:52 PM 73.9 °F - 61.0 °F 64% 29.90 in 10.0 mi Calm Calm - N/A   Clear
8:52 PM 68.0 °F - 60.1 °F 76% 29.91 in 10.0 mi Calm Calm - N/A   Clear
9:52 PM 64.9 °F - 60.1 °F 84% 29.93 in 10.0 mi NNE 3.5 mph - N/A   Clear
10:52 PM 64.0 °F - 60.1 °F 87% 29.95 in 10.0 mi Calm Calm - N/A   Clear
11:52 PM 62.1 °F - 57.9 °F 86% 29.96 in 10.0 mi NNE 3.5 mph - N/A   Clear